TimeCST,TemperatureF,Dew PointF,Humidity,Sea Level PressureIn,VisibilityMPH,Wind Direction,Wind SpeedMPH,Gust SpeedMPH,PrecipitationIn,Events,Conditions,WindDirDegrees,DateUTC
12:15 AM,24.8,23.0,93,30.22,10.0,NNE,8.1,-,N/A,,Mostly Cloudy,30,2013-12-07 06:15:00
12:35 AM,24.8,24.8,100,30.22,6.0,ENE,12.7,-,N/A,,Mostly Cloudy,60,2013-12-07 06:35:00
12:55 AM,24.8,23.0,93,30.22,9.0,NE,9.2,-,N/A,,Mostly Cloudy,50,2013-12-07 06:55:00
1:15 AM,24.8,23.0,93,30.21,10.0,NE,10.4,-,N/A,,Mostly Cloudy,50,2013-12-07 07:15:00
1:35 AM,24.8,23.0,93,30.22,10.0,ENE,12.7,-,N/A,,Partly Cloudy,60,2013-12-07 07:35:00
1:55 AM,24.8,23.0,93,30.22,10.0,ENE,11.5,-,N/A,,Mostly Cloudy,60,2013-12-07 07:55:00
2:15 AM,24.8,23.0,93,30.21,7.0,ENE,12.7,-,N/A,,Overcast,60,2013-12-07 08:15:00
2:35 AM,24.8,24.8,100,30.21,10.0,ENE,9.2,-,N/A,,Overcast,60,2013-12-07 08:35:00
2:55 AM,24.8,24.8,100,30.20,10.0,ENE,11.5,-,N/A,,Overcast,60,2013-12-07 08:55:00
3:15 AM,24.8,24.8,100,30.20,10.0,NE,9.2,-,N/A,,Overcast,50,2013-12-07 09:15:00
3:35 AM,24.8,24.8,100,30.19,10.0,NE,10.4,-,N/A,,Overcast,50,2013-12-07 09:35:00
3:55 AM,24.8,24.8,100,30.19,10.0,NE,9.2,-,N/A,,Overcast,50,2013-12-07 09:55:00
4:15 AM,24.8,24.8,100,30.20,10.0,ENE,11.5,-,N/A,,Overcast,60,2013-12-07 10:15:00
4:35 AM,24.8,24.8,100,30.19,8.0,NE,10.4,-,N/A,,Overcast,50,2013-12-07 10:35:00
4:55 AM,24.8,23.0,93,30.19,8.0,NE,11.5,-,N/A,,Overcast,50,2013-12-07 10:55:00
5:15 AM,24.8,23.0,93,30.18,6.0,NE,11.5,16.1,N/A,,Overcast,50,2013-12-07 11:15:00
5:35 AM,24.8,23.0,93,30.18,5.0,NE,10.4,-,N/A,,Overcast,40,2013-12-07 11:35:00
5:55 AM,24.8,23.0,93,30.18,3.0,NE,15.0,-,N/A,,Overcast,50,2013-12-07 11:55:00
6:15 AM,24.8,24.8,100,30.18,4.0,ENE,12.7,-,N/A,,Overcast,60,2013-12-07 12:15:00
6:35 AM,24.8,23.0,93,30.18,6.0,NE,11.5,-,N/A,,Overcast,50,2013-12-07 12:35:00
6:55 AM,24.8,23.0,93,30.19,5.0,ENE,12.7,-,N/A,,Overcast,60,2013-12-07 12:55:00
7:15 AM,23.0,21.2,93,30.18,2.0,ENE,13.8,-,N/A,,Overcast,60,2013-12-07 13:15:00
7:35 AM,23.0,23.0,100,30.19,2.5,NE,11.5,-,N/A,,Overcast,50,2013-12-07 13:35:00
7:55 AM,23.0,23.0,100,30.20,3.0,NE,9.2,-,N/A,,Overcast,40,2013-12-07 13:55:00
8:15 AM,23.0,21.2,93,30.20,2.0,NE,10.4,-,N/A,,Overcast,40,2013-12-07 14:15:00
8:35 AM,23.0,21.2,93,30.22,1.5,NE,10.4,-,N/A,,Overcast,50,2013-12-07 14:35:00
8:55 AM,23.0,21.2,93,30.22,2.0,NE,9.2,-,N/A,,Overcast,50,2013-12-07 14:55:00
9:15 AM,23.0,21.2,93,30.22,2.5,NE,9.2,-,N/A,,Overcast,50,2013-12-07 15:15:00
9:35 AM,23.0,23.0,100,30.22,5.0,NE,10.4,-,N/A,,Overcast,50,2013-12-07 15:35:00
9:55 AM,23.0,21.2,93,30.22,5.0,NE,10.4,-,N/A,,Overcast,50,2013-12-07 15:55:00
10:15 AM,23.0,21.2,93,30.22,7.0,NE,10.4,-,N/A,,Overcast,40,2013-12-07 16:15:00
10:35 AM,24.8,23.0,93,30.22,10.0,NE,8.1,-,N/A,,Overcast,50,2013-12-07 16:35:00
10:55 AM,24.8,23.0,93,30.22,10.0,NE,10.4,-,N/A,,Overcast,50,2013-12-07 16:55:00
11:15 AM,24.8,23.0,93,30.21,9.0,NE,8.1,-,N/A,,Overcast,50,2013-12-07 17:15:00
11:35 AM,24.8,24.8,100,30.20,10.0,ENE,8.1,-,N/A,,Overcast,60,2013-12-07 17:35:00
11:55 AM,24.8,24.8,100,30.19,8.0,NE,8.1,-,N/A,,Overcast,50,2013-12-07 17:55:00
12:15 PM,26.6,26.6,100,30.17,9.0,ENE,6.9,-,N/A,,Overcast,70,2013-12-07 18:15:00
12:35 PM,26.6,24.8,93,30.16,7.0,ENE,6.9,-,N/A,,Overcast,70,2013-12-07 18:35:00
12:55 PM,26.6,26.6,100,30.15,3.0,NE,5.8,-,N/A,,Overcast,50,2013-12-07 18:55:00
1:15 PM,28.4,28.4,100,30.14,3.0,Calm,Calm,-,N/A,,Overcast,0,2013-12-07 19:15:00
1:35 PM,28.4,26.6,93,30.12,5.0,Calm,Calm,-,N/A,,Overcast,0,2013-12-07 19:35:00
1:55 PM,28.4,28.4,100,30.11,10.0,ESE,3.5,-,N/A,,Overcast,120,2013-12-07 19:55:00
2:15 PM,28.4,26.6,93,30.10,10.0,Calm,Calm,-,N/A,,Overcast,0,2013-12-07 20:15:00
2:35 PM,28.4,26.6,93,30.09,10.0,Calm,Calm,-,N/A,,Overcast,0,2013-12-07 20:35:00
2:55 PM,30.2,28.4,93,30.10,10.0,Calm,Calm,-,N/A,,Overcast,0,2013-12-07 20:55:00
3:15 PM,30.2,26.6,86,30.07,10.0,East,3.5,-,N/A,,Overcast,80,2013-12-07 21:15:00
3:35 PM,30.2,30.2,100,30.07,10.0,ESE,3.5,-,N/A,,Overcast,120,2013-12-07 21:35:00
3:55 PM,32.0,28.4,87,30.07,10.0,Calm,Calm,-,N/A,,Overcast,0,2013-12-07 21:55:00
4:15 PM,32.0,30.2,93,30.06,10.0,Calm,Calm,-,N/A,,Overcast,0,2013-12-07 22:15:00
4:35 PM,33.8,30.2,87,30.06,10.0,SSE,4.6,-,N/A,,Overcast,150,2013-12-07 22:35:00
4:55 PM,33.8,30.2,87,30.06,10.0,South,4.6,-,N/A,,Overcast,170,2013-12-07 22:55:00
5:15 PM,33.8,30.2,87,30.06,10.0,SSE,4.6,-,N/A,,Overcast,150,2013-12-07 23:15:00
5:35 PM,33.8,30.2,87,30.07,10.0,South,5.8,-,N/A,,Overcast,170,2013-12-07 23:35:00
5:55 PM,33.8,30.2,87,30.07,10.0,South,4.6,-,N/A,,Overcast,190,2013-12-07 23:55:00
6:15 PM,33.8,30.2,87,30.07,10.0,SSE,6.9,-,N/A,,Overcast,150,2013-12-08 00:15:00
6:35 PM,33.8,30.2,87,30.07,10.0,South,6.9,-,N/A,,Overcast,170,2013-12-08 00:35:00
6:55 PM,33.8,30.2,87,30.07,10.0,South,4.6,-,N/A,,Overcast,170,2013-12-08 00:55:00
7:15 PM,32.0,30.2,93,30.07,10.0,South,4.6,-,N/A,,Overcast,170,2013-12-08 01:15:00
7:35 PM,32.0,30.2,93,30.07,8.0,SSW,3.5,-,N/A,,Overcast,210,2013-12-08 01:35:00
7:55 PM,32.0,30.2,93,30.07,4.0,Calm,Calm,-,N/A,,Overcast,0,2013-12-08 01:55:00
8:15 PM,32.0,30.2,93,30.07,2.5,SSE,3.5,-,N/A,,Overcast,160,2013-12-08 02:15:00
8:35 PM,32.0,30.2,93,30.07,1.0,SE,4.6,-,N/A,,Overcast,130,2013-12-08 02:35:00
8:55 PM,30.2,30.2,100,30.07,0.2,Calm,Calm,-,N/A,,Overcast,0,2013-12-08 02:55:00
9:15 PM,30.2,28.4,93,30.07,0.2,SE,4.6,-,N/A,,Overcast,140,2013-12-08 03:15:00
9:35 PM,30.2,30.2,100,30.07,0.5,ESE,4.6,-,N/A,,Overcast,110,2013-12-08 03:35:00
9:55 PM,30.2,30.2,100,30.07,0.2,ESE,5.8,-,N/A,,Overcast,120,2013-12-08 03:55:00
10:15 PM,30.2,30.2,100,30.07,0.2,Calm,Calm,-,N/A,,Overcast,0,2013-12-08 04:15:00
10:35 PM,30.2,28.4,93,30.08,0.2,Calm,Calm,-,N/A,,Overcast,0,2013-12-08 04:35:00
10:55 PM,30.2,30.2,100,30.07,0.2,Calm,Calm,-,N/A,,Overcast,0,2013-12-08 04:55:00
11:15 PM,30.2,30.2,100,30.07,0.2,ESE,3.5,-,N/A,,Overcast,110,2013-12-08 05:15:00
11:35 PM,30.2,28.4,93,30.07,0.2,Calm,Calm,-,N/A,,Overcast,0,2013-12-08 05:35:00
11:55 PM,30.2,30.2,100,30.07,0.2,Calm,Calm,-,N/A,,Overcast,0,2013-12-08 05:55:00